owner,sensor,date,latitude,longitude,vertical_datum,wind_speed,wind_to_direction,wind_speed_of_gust,qcFlag 
TCOON,ioos:station:TCOON:057:1,2010-03-01T14:00:00Z,28.4460,-96.3961,0.0,6.2,332.0,7.0,'11111222,11111222,11111222' 
TCOON,ioos:station:TCOON:057:1,2010-03-01T15:00:00Z,28.4460,-96.3961,0.0,4.0,323.0,4.6,'11111222,11111222,11111222' 
TCOON,ioos:station:TCOON:057:1,2010-03-01T16:00:00Z,28.4460,-96.3961,0.0,3.7,318.0,4.1,'11111222,11111222,11111222' 
TCOON,ioos:station:TCOON:057:1,2010-03-01T17:00:00Z,28.4460,-96.3961,0.0,5.1,317.0,5.6,'11111222,11111222,11111222' 
TCOON,ioos:station:TCOON:057:1,2010-03-01T19:00:00Z,28.4460,-96.3961,0.0,5.3,337.0,5.8,'11111222,11111222,11111222' 
TCOON,ioos:station:TCOON:057:1,2010-03-01T20:00:00Z,28.4460,-96.3961,0.0,7.3,323.0,8.4,'11111222,11111222,11111222' 
TCOON,ioos:station:TCOON:057:1,2010-03-01T21:00:00Z,28.4460,-96.3961,0.0,10.0,295.0,12.3,'11111222,11111222,11111222' 
TCOON,ioos:station:TCOON:057:1,2010-03-01T22:00:00Z,28.4460,-96.3961,0.0,11.0,290.0,13.6,'11111222,11111222,11111222' 
TCOON,ioos:station:TCOON:057:1,2010-03-01T23:00:00Z,28.4460,-96.3961,0.0,11.0,309.0,13.1,'11111222,11111222,11111222' 
TCOON,ioos:station:TCOON:057:1,2010-03-02T00:00:00Z,28.4460,-96.3961,0.0,10.8,313.0,12.2,'11111222,11111222,11111222' 
TCOON,ioos:station:TCOON:057:1,2010-03-02T01:00:00Z,28.4460,-96.3961,0.0,11.9,314.0,15.0,'11111222,11111222,11111222' 
TCOON,ioos:station:TCOON:057:1,2010-03-02T02:00:00Z,28.4460,-96.3961,0.0,16.5,323.0,19.0,'11111222,11111222,11111222' 
TCOON,ioos:station:TCOON:057:1,2010-03-02T03:00:00Z,28.4460,-96.3961,0.0,14.8,330.0,16.9,'11111222,11111222,11111222' 
TCOON,ioos:station:TCOON:057:1,2010-03-02T04:00:00Z,28.4460,-96.3961,0.0,15.3,331.0,17.7,'11111222,11111222,11111222' 
TCOON,ioos:station:TCOON:057:1,2010-03-02T05:00:00Z,28.4460,-96.3961,0.0,15.2,343.0,18.2,'11111222,11111222,11111222' 
TCOON,ioos:station:TCOON:057:1,2010-03-02T06:00:00Z,28.4460,-96.3961,0.0,15.4,332.0,18.1,'11111222,11111222,11111222' 
TCOON,ioos:station:TCOON:057:1,2010-03-02T07:00:00Z,28.4460,-96.3961,0.0,12.7,335.0,15.5,'11111222,11111222,11111222' 
TCOON,ioos:station:TCOON:057:1,2010-03-02T08:00:00Z,28.4460,-96.3961,0.0,11.7,340.0,15.3,'11111222,11111222,11111222' 
TCOON,ioos:station:TCOON:057:1,2010-03-02T09:00:00Z,28.4460,-96.3961,0.0,13.4,331.0,15.8,'11111222,11111222,11111222' 
TCOON,ioos:station:TCOON:057:1,2010-03-02T10:00:00Z,28.4460,-96.3961,0.0,12.9,332.0,15.6,'11111222,11111222,11111222' 
TCOON,ioos:station:TCOON:057:1,2010-03-02T11:00:00Z,28.4460,-96.3961,0.0,12.6,328.0,14.2,'11111222,11111222,11111222' 
TCOON,ioos:station:TCOON:057:1,2010-03-02T12:00:00Z,28.4460,-96.3961,0.0,10.8,330.0,13.0,'11111222,11111222,11111222' 
TCOON,ioos:station:TCOON:057:1,2010-03-02T13:00:00Z,28.4460,-96.3961,0.0,9.8,331.0,11.9,'11111222,11111222,11111222' 
TCOON,ioos:station:TCOON:057:1,2010-03-02T14:00:00Z,28.4460,-96.3961,0.0,9.4,326.0,11.1,'11111222,11111222,11111222' 
TCOON,ioos:station:TCOON:057:1,2010-03-02T15:00:00Z,28.4460,-96.3961,0.0,9.1,321.0,10.8,'11111222,11111222,11111222' 
TCOON,ioos:station:TCOON:057:1,2010-03-02T16:00:00Z,28.4460,-96.3961,0.0,7.9,319.0,9.1,'11111222,11111222,11111222' 
TCOON,ioos:station:TCOON:057:1,2010-03-02T17:00:00Z,28.4460,-96.3961,0.0,7.6,318.0,8.7,'11111222,11111222,11111222' 
TCOON,ioos:station:TCOON:057:1,2010-03-02T18:00:00Z,28.4460,-96.3961,0.0,8.3,316.0,9.6,'11111222,11111222,11111222' 
TCOON,ioos:station:TCOON:057:1,2010-03-02T20:00:00Z,28.4460,-96.3961,0.0,7.3,320.0,8.8,'11111222,11111222,11111222' 
TCOON,ioos:station:TCOON:057:1,2010-03-02T21:00:00Z,28.4460,-96.3961,0.0,8.2,319.0,9.1,'11111222,11111222,11111222' 
TCOON,ioos:station:TCOON:057:1,2010-03-02T22:00:00Z,28.4460,-96.3961,0.0,7.6,322.0,8.6,'11111222,11111222,11111222' 
TCOON,ioos:station:TCOON:057:1,2010-03-02T23:00:00Z,28.4460,-96.3961,0.0,6.2,321.0,7.8,'11111222,11111222,11111222' 
TCOON,ioos:station:TCOON:057:1,2010-03-03T00:00:00Z,28.4460,-96.3961,0.0,5.1,335.0,6.0,'11111222,11111222,11111222' 
TCOON,ioos:station:TCOON:057:1,2010-03-03T01:00:00Z,28.4460,-96.3961,0.0,5.1,348.0,5.5,'11111222,11111222,11111222' 
TCOON,ioos:station:TCOON:057:1,2010-03-03T02:00:00Z,28.4460,-96.3961,0.0,4.9,354.0,5.4,'11111222,11111222,11111222' 
TCOON,ioos:station:TCOON:057:1,2010-03-03T03:00:00Z,28.4460,-96.3961,0.0,2.1,262.0,2.5,'11111222,11111222,11111222' 
TCOON,ioos:station:TCOON:057:1,2010-03-03T04:00:00Z,28.4460,-96.3961,0.0,1.4,306.0,1.7,'11111222,11111222,11111222' 
TCOON,ioos:station:TCOON:057:1,2010-03-03T05:00:00Z,28.4460,-96.3961,0.0,0.8,10.0,1.5,'11111222,11111222,11111222' 
TCOON,ioos:station:TCOON:057:1,2010-03-03T06:00:00Z,28.4460,-96.3961,0.0,1.9,34.0,2.3,'11111222,11111222,11111222' 
TCOON,ioos:station:TCOON:057:1,2010-03-03T07:00:00Z,28.4460,-96.3961,0.0,0.8,50.0,1.7,'11111222,11111222,11111222' 
TCOON,ioos:station:TCOON:057:1,2010-03-03T08:00:00Z,28.4460,-96.3961,0.0,0.0,229.0,99.0,'11111222,11111222,11144222' 
TCOON,ioos:station:TCOON:057:1,2010-03-03T09:00:00Z,28.4460,-96.3961,0.0,0.0,203.0,99.0,'11111222,11111222,11144222' 
TCOON,ioos:station:TCOON:057:1,2010-03-03T10:00:00Z,28.4460,-96.3961,0.0,1.7,91.0,2.0,'11111222,11111222,11111222' 
TCOON,ioos:station:TCOON:057:1,2010-03-03T11:00:00Z,28.4460,-96.3961,0.0,1.7,93.0,2.1,'11111222,11111222,11111222' 
TCOON,ioos:station:TCOON:057:1,2010-03-03T12:00:00Z,28.4460,-96.3961,0.0,0.0,97.0,99.0,'11111222,11111222,11144222' 
TCOON,ioos:station:TCOON:057:1,2010-03-03T13:00:00Z,28.4460,-96.3961,0.0,0.0,95.0,99.0,'11111222,11111222,11144222' 
TCOON,ioos:station:TCOON:057:1,2010-03-03T14:00:00Z,28.4460,-96.3961,0.0,1.5,78.0,2.1,'11111222,11111222,11111222' 
TCOON,ioos:station:TCOON:057:1,2010-03-03T15:00:00Z,28.4460,-96.3961,0.0,2.2,78.0,2.7,'11111222,11111222,11111222' 
TCOON,ioos:station:TCOON:057:1,2010-03-03T16:00:00Z,28.4460,-96.3961,0.0,2.8,73.0,3.3,'11111222,11111222,11111222' 
TCOON,ioos:station:TCOON:057:1,2010-03-03T17:00:00Z,28.4460,-96.3961,0.0,2.2,113.0,2.7,'11111222,11111222,11111222' 
TCOON,ioos:station:TCOON:057:1,2010-03-03T18:00:00Z,28.4460,-96.3961,0.0,3.5,124.0,3.8,'11111222,11111222,11111222' 
TCOON,ioos:station:TCOON:057:1,2010-03-03T19:00:00Z,28.4460,-96.3961,0.0,4.1,118.0,4.6,'11111222,11111222,11111222' 
TCOON,ioos:station:TCOON:057:1,2010-03-03T20:00:00Z,28.4460,-96.3961,0.0,4.0,109.0,4.5,'11111222,11111222,11111222' 
TCOON,ioos:station:TCOON:057:1,2010-03-03T21:00:00Z,28.4460,-96.3961,0.0,5.2,121.0,6.1,'11111222,11111222,11111222' 
TCOON,ioos:station:TCOON:057:1,2010-03-03T22:00:00Z,28.4460,-96.3961,0.0,5.2,120.0,6.0,'11111222,11111222,11111222' 
TCOON,ioos:station:TCOON:057:1,2010-03-03T23:00:00Z,28.4460,-96.3961,0.0,5.4,129.0,6.0,'11111222,11111222,11111222' 
TCOON,ioos:station:TCOON:057:1,2010-03-04T00:00:00Z,28.4460,-96.3961,0.0,6.0,132.0,6.9,'11111222,11111222,11111222' 
TCOON,ioos:station:TCOON:057:1,2010-03-04T01:00:00Z,28.4460,-96.3961,0.0,6.1,138.0,6.5,'11111222,11111222,11111222' 
TCOON,ioos:station:TCOON:057:1,2010-03-04T02:00:00Z,28.4460,-96.3961,0.0,6.2,139.0,7.0,'11111222,11111222,11111222' 
TCOON,ioos:station:TCOON:057:1,2010-03-04T03:00:00Z,28.4460,-96.3961,0.0,5.5,140.0,6.4,'11111222,11111222,11111222' 
TCOON,ioos:station:TCOON:057:1,2010-03-04T04:00:00Z,28.4460,-96.3961,0.0,5.3,142.0,6.4,'11111222,11111222,11111222' 
TCOON,ioos:station:TCOON:057:1,2010-03-04T05:00:00Z,28.4460,-96.3961,0.0,5.1,135.0,5.7,'11111222,11111222,11111222' 
TCOON,ioos:station:TCOON:057:1,2010-03-04T06:00:00Z,28.4460,-96.3961,0.0,5.1,141.0,6.0,'11111222,11111222,11111222' 
TCOON,ioos:station:TCOON:057:1,2010-03-04T07:00:00Z,28.4460,-96.3961,0.0,4.3,142.0,4.8,'11111222,11111222,11111222' 
TCOON,ioos:station:TCOON:057:1,2010-03-04T08:00:00Z,28.4460,-96.3961,0.0,3.7,136.0,4.1,'11111222,11111222,11111222' 
TCOON,ioos:station:TCOON:057:1,2010-03-04T09:00:00Z,28.4460,-96.3961,0.0,3.8,132.0,4.4,'11111222,11111222,11111222' 
TCOON,ioos:station:TCOON:057:1,2010-03-04T10:00:00Z,28.4460,-96.3961,0.0,3.2,133.0,3.4,'11111222,11111222,11111222' 
TCOON,ioos:station:TCOON:057:1,2010-03-04T11:00:00Z,28.4460,-96.3961,0.0,2.8,134.0,3.1,'11111222,11111222,11111222' 
TCOON,ioos:station:TCOON:057:1,2010-03-04T12:00:00Z,28.4460,-96.3961,0.0,3.2,116.0,3.5,'11111222,11111222,11111222' 
TCOON,ioos:station:TCOON:057:1,2010-03-04T13:00:00Z,28.4460,-96.3961,0.0,3.6,116.0,4.1,'11111222,11111222,11111222' 
TCOON,ioos:station:TCOON:057:1,2010-03-04T14:00:00Z,28.4460,-96.3961,0.0,4.0,116.0,4.5,'11111222,11111222,11111222' 
TCOON,ioos:station:TCOON:057:1,2010-03-04T15:00:00Z,28.4460,-96.3961,0.0,4.8,116.0,5.3,'11111222,11111222,11111222' 
TCOON,ioos:station:TCOON:057:1,2010-03-04T16:00:00Z,28.4460,-96.3961,0.0,5.7,121.0,6.3,'11111222,11111222,11111222' 
TCOON,ioos:station:TCOON:057:1,2010-03-04T17:00:00Z,28.4460,-96.3961,0.0,6.0,121.0,6.9,'11111222,11111222,11111222' 
TCOON,ioos:station:TCOON:057:1,2010-03-04T18:00:00Z,28.4460,-96.3961,0.0,6.5,124.0,7.1,'11111222,11111222,11111222' 
TCOON,ioos:station:TCOON:057:1,2010-03-04T19:00:00Z,28.4460,-96.3961,0.0,7.1,118.0,8.6,'11111222,11111222,11111222' 
TCOON,ioos:station:TCOON:057:1,2010-03-04T20:00:00Z,28.4460,-96.3961,0.0,6.8,122.0,7.5,'11111222,11111222,11111222' 
TCOON,ioos:station:TCOON:057:1,2010-03-04T21:00:00Z,28.4460,-96.3961,0.0,6.9,120.0,8.0,'11111222,11111222,11111222' 
TCOON,ioos:station:TCOON:057:1,2010-03-04T22:00:00Z,28.4460,-96.3961,0.0,7.2,115.0,8.2,'11111222,11111222,11111222' 
TCOON,ioos:station:TCOON:057:1,2010-03-04T23:00:00Z,28.4460,-96.3961,0.0,6.6,118.0,7.7,'11111222,11111222,11111222' 
TCOON,ioos:station:TCOON:057:1,2010-03-05T00:00:00Z,28.4460,-96.3961,0.0,6.6,110.0,7.3,'11111222,11111222,11111222' 
TCOON,ioos:station:TCOON:057:1,2010-03-05T01:00:00Z,28.4460,-96.3961,0.0,6.0,109.0,6.5,'11111222,11111222,11111222' 
TCOON,ioos:station:TCOON:057:1,2010-03-05T02:00:00Z,28.4460,-96.3961,0.0,6.0,105.0,6.9,'11111222,11111222,11111222' 
TCOON,ioos:station:TCOON:057:1,2010-03-05T03:00:00Z,28.4460,-96.3961,0.0,5.7,112.0,6.4,'11111222,11111222,11111222' 
TCOON,ioos:station:TCOON:057:1,2010-03-05T04:00:00Z,28.4460,-96.3961,0.0,5.6,112.0,6.3,'11111222,11111222,11111222' 
TCOON,ioos:station:TCOON:057:1,2010-03-05T05:00:00Z,28.4460,-96.3961,0.0,5.5,114.0,6.6,'11111222,11111222,11111222' 
TCOON,ioos:station:TCOON:057:1,2010-03-05T06:00:00Z,28.4460,-96.3961,0.0,5.9,112.0,6.7,'11111222,11111222,11111222' 
TCOON,ioos:station:TCOON:057:1,2010-03-05T07:00:00Z,28.4460,-96.3961,0.0,6.0,112.0,6.8,'11111222,11111222,11111222' 
TCOON,ioos:station:TCOON:057:1,2010-03-05T09:00:00Z,28.4460,-96.3961,0.0,6.2,108.0,7.2,'11111222,11111222,11111222' 
TCOON,ioos:station:TCOON:057:1,2010-03-05T10:00:00Z,28.4460,-96.3961,0.0,7.0,111.0,8.1,'11111222,11111222,11111222' 
TCOON,ioos:station:TCOON:057:1,2010-03-05T11:00:00Z,28.4460,-96.3961,0.0,7.4,105.0,8.3,'11111222,11111222,11111222' 
TCOON,ioos:station:TCOON:057:1,2010-03-05T12:00:00Z,28.4460,-96.3961,0.0,6.9,112.0,7.8,'11111222,11111222,11111222' 
TCOON,ioos:station:TCOON:057:1,2010-03-05T13:00:00Z,28.4460,-96.3961,0.0,6.0,109.0,6.8,'11111222,11111222,11111222' 
TCOON,ioos:station:TCOON:057:1,2010-03-05T14:00:00Z,28.4460,-96.3961,0.0,6.2,107.0,6.9,'11111222,11111222,11111222' 
TCOON,ioos:station:TCOON:057:1,2010-03-05T15:00:00Z,28.4460,-96.3961,0.0,6.1,102.0,6.6,'11111222,11111222,11111222' 
TCOON,ioos:station:TCOON:057:1,2010-03-05T16:00:00Z,28.4460,-96.3961,0.0,6.9,104.0,8.7,'11111222,11111222,11111222' 
TCOON,ioos:station:TCOON:057:1,2010-03-05T17:00:00Z,28.4460,-96.3961,0.0,6.4,106.0,7.5,'11111222,11111222,11111222' 
TCOON,ioos:station:TCOON:057:1,2010-03-05T18:00:00Z,28.4460,-96.3961,0.0,6.3,101.0,7.2,'11111222,11111222,11111222' 
TCOON,ioos:station:TCOON:057:1,2010-03-05T19:00:00Z,28.4460,-96.3961,0.0,7.0,98.0,7.9,'11111222,11111222,11111222' 
TCOON,ioos:station:TCOON:057:1,2010-03-05T20:00:00Z,28.4460,-96.3961,0.0,6.2,85.0,7.1,'11111222,11111222,11111222' 
TCOON,ioos:station:TCOON:057:1,2010-03-05T21:00:00Z,28.4460,-96.3961,0.0,7.1,96.0,8.0,'11111222,11111222,11111222' 
TCOON,ioos:station:TCOON:057:1,2010-03-05T22:00:00Z,28.4460,-96.3961,0.0,7.0,86.0,8.2,'11111222,11111222,11111222' 
TCOON,ioos:station:TCOON:057:1,2010-03-05T23:00:00Z,28.4460,-96.3961,0.0,7.5,78.0,8.8,'11111222,11111222,11111222' 
TCOON,ioos:station:TCOON:057:1,2010-03-06T00:00:00Z,28.4460,-96.3961,0.0,7.9,73.0,8.7,'11111222,11111222,11111222' 
TCOON,ioos:station:TCOON:057:1,2010-03-06T01:00:00Z,28.4460,-96.3961,0.0,7.2,85.0,8.5,'11111222,11111222,11111222' 
TCOON,ioos:station:TCOON:057:1,2010-03-06T02:00:00Z,28.4460,-96.3961,0.0,5.3,72.0,6.0,'11111222,11111222,11111222' 
TCOON,ioos:station:TCOON:057:1,2010-03-06T03:00:00Z,28.4460,-96.3961,0.0,5.6,92.0,6.4,'11111222,11111222,11111222' 
TCOON,ioos:station:TCOON:057:1,2010-03-06T04:00:00Z,28.4460,-96.3961,0.0,5.1,97.0,5.8,'11111222,11111222,11111222' 
TCOON,ioos:station:TCOON:057:1,2010-03-06T05:00:00Z,28.4460,-96.3961,0.0,4.9,97.0,5.5,'11111222,11111222,11111222' 
TCOON,ioos:station:TCOON:057:1,2010-03-06T07:00:00Z,28.4460,-96.3961,0.0,4.9,82.0,5.6,'11111222,11111222,11111222' 
TCOON,ioos:station:TCOON:057:1,2010-03-06T08:00:00Z,28.4460,-96.3961,0.0,5.0,77.0,5.7,'11111222,11111222,11111222' 
TCOON,ioos:station:TCOON:057:1,2010-03-06T10:00:00Z,28.4460,-96.3961,0.0,4.9,78.0,5.3,'11111222,11111222,11111222' 
TCOON,ioos:station:TCOON:057:1,2010-03-06T11:00:00Z,28.4460,-96.3961,0.0,5.6,66.0,6.3,'11111222,11111222,11111222' 
TCOON,ioos:station:TCOON:057:1,2010-03-06T12:00:00Z,28.4460,-96.3961,0.0,6.8,74.0,7.4,'11111222,11111222,11111222' 
TCOON,ioos:station:TCOON:057:1,2010-03-06T13:00:00Z,28.4460,-96.3961,0.0,6.7,76.0,7.5,'11111222,11111222,11111222' 
TCOON,ioos:station:TCOON:057:1,2010-03-06T14:00:00Z,28.4460,-96.3961,0.0,7.4,86.0,9.0,'11111222,11111222,11111222' 
TCOON,ioos:station:TCOON:057:1,2010-03-06T15:00:00Z,28.4460,-96.3961,0.0,8.9,87.0,10.4,'11111222,11111222,11111222' 
TCOON,ioos:station:TCOON:057:1,2010-03-06T16:00:00Z,28.4460,-96.3961,0.0,9.7,89.0,11.3,'11111222,11111222,11111222' 
TCOON,ioos:station:TCOON:057:1,2010-03-06T17:00:00Z,28.4460,-96.3961,0.0,9.5,92.0,10.5,'11111222,11111222,11111222' 
TCOON,ioos:station:TCOON:057:1,2010-03-06T18:00:00Z,28.4460,-96.3961,0.0,9.0,82.0,10.9,'11111222,11111222,11111222' 
TCOON,ioos:station:TCOON:057:1,2010-03-06T19:00:00Z,28.4460,-96.3961,0.0,8.7,84.0,9.7,'11111222,11111222,11111222' 
TCOON,ioos:station:TCOON:057:1,2010-03-06T20:00:00Z,28.4460,-96.3961,0.0,8.3,82.0,10.0,'11111222,11111222,11111222' 
TCOON,ioos:station:TCOON:057:1,2010-03-06T22:00:00Z,28.4460,-96.3961,0.0,9.2,80.0,10.3,'11111222,11111222,11111222' 
TCOON,ioos:station:TCOON:057:1,2010-03-07T00:00:00Z,28.4460,-96.3961,0.0,8.1,85.0,9.5,'11111222,11111222,11111222' 
TCOON,ioos:station:TCOON:057:1,2010-03-07T01:00:00Z,28.4460,-96.3961,0.0,7.6,82.0,8.8,'11111222,11111222,11111222' 
TCOON,ioos:station:TCOON:057:1,2010-03-07T02:00:00Z,28.4460,-96.3961,0.0,7.9,86.0,9.4,'11111222,11111222,11111222' 
TCOON,ioos:station:TCOON:057:1,2010-03-07T03:00:00Z,28.4460,-96.3961,0.0,6.9,83.0,8.2,'11111222,11111222,11111222' 
TCOON,ioos:station:TCOON:057:1,2010-03-07T04:00:00Z,28.4460,-96.3961,0.0,5.9,82.0,6.6,'11111222,11111222,11111222' 
TCOON,ioos:station:TCOON:057:1,2010-03-07T05:00:00Z,28.4460,-96.3961,0.0,5.9,90.0,6.8,'11111222,11111222,11111222' 
TCOON,ioos:station:TCOON:057:1,2010-03-07T06:00:00Z,28.4460,-96.3961,0.0,5.9,95.0,6.6,'11111222,11111222,11111222' 
TCOON,ioos:station:TCOON:057:1,2010-03-07T07:00:00Z,28.4460,-96.3961,0.0,6.0,107.0,6.8,'11111222,11111222,11111222' 
TCOON,ioos:station:TCOON:057:1,2010-03-07T08:00:00Z,28.4460,-96.3961,0.0,7.6,105.0,8.9,'11111222,11111222,11111222' 
TCOON,ioos:station:TCOON:057:1,2010-03-07T09:00:00Z,28.4460,-96.3961,0.0,6.3,114.0,6.9,'11111222,11111222,11111222' 
TCOON,ioos:station:TCOON:057:1,2010-03-07T10:00:00Z,28.4460,-96.3961,0.0,5.5,107.0,6.3,'11111222,11111222,11111222' 
TCOON,ioos:station:TCOON:057:1,2010-03-07T11:00:00Z,28.4460,-96.3961,0.0,4.6,99.0,5.3,'11111222,11111222,11111222' 
TCOON,ioos:station:TCOON:057:1,2010-03-07T12:00:00Z,28.4460,-96.3961,0.0,4.2,90.0,5.1,'11111222,11111222,11111222' 
TCOON,ioos:station:TCOON:057:1,2010-03-07T13:00:00Z,28.4460,-96.3961,0.0,6.5,98.0,7.2,'11111222,11111222,11111222' 
TCOON,ioos:station:TCOON:057:1,2010-03-07T14:00:00Z,28.4460,-96.3961,0.0,6.8,106.0,7.7,'11111222,11111222,11111222' 
TCOON,ioos:station:TCOON:057:1,2010-03-07T15:00:00Z,28.4460,-96.3961,0.0,7.4,110.0,8.8,'11111222,11111222,11111222' 
TCOON,ioos:station:TCOON:057:1,2010-03-07T16:00:00Z,28.4460,-96.3961,0.0,7.7,105.0,8.8,'11111222,11111222,11111222' 
TCOON,ioos:station:TCOON:057:1,2010-03-07T17:00:00Z,28.4460,-96.3961,0.0,7.1,99.0,8.1,'11111222,11111222,11111222' 
TCOON,ioos:station:TCOON:057:1,2010-03-07T18:00:00Z,28.4460,-96.3961,0.0,8.7,108.0,10.8,'11111222,11111222,11111222' 
TCOON,ioos:station:TCOON:057:1,2010-03-07T19:00:00Z,28.4460,-96.3961,0.0,8.3,109.0,9.5,'11111222,11111222,11111222' 
TCOON,ioos:station:TCOON:057:1,2010-03-07T20:00:00Z,28.4460,-96.3961,0.0,7.5,106.0,8.4,'11111222,11111222,11111222' 
TCOON,ioos:station:TCOON:057:1,2010-03-07T21:00:00Z,28.4460,-96.3961,0.0,8.7,98.0,10.0,'11111222,11111222,11111222' 
TCOON,ioos:station:TCOON:057:1,2010-03-07T22:00:00Z,28.4460,-96.3961,0.0,8.2,96.0,9.5,'11111222,11111222,11111222' 
TCOON,ioos:station:TCOON:057:1,2010-03-07T23:00:00Z,28.4460,-96.3961,0.0,7.4,102.0,8.2,'11111222,11111222,11111222' 
TCOON,ioos:station:TCOON:057:1,2010-03-08T00:00:00Z,28.4460,-96.3961,0.0,8.3,105.0,10.1,'11111222,11111222,11111222' 
TCOON,ioos:station:TCOON:057:1,2010-03-08T01:00:00Z,28.4460,-96.3961,0.0,8.6,113.0,9.9,'11111222,11111222,11111222' 
TCOON,ioos:station:TCOON:057:1,2010-03-08T03:00:00Z,28.4460,-96.3961,0.0,8.1,115.0,9.3,'11111222,11111222,11111222' 
TCOON,ioos:station:TCOON:057:1,2010-03-08T04:00:00Z,28.4460,-96.3961,0.0,7.0,117.0,7.7,'11111222,11111222,11111222' 
TCOON,ioos:station:TCOON:057:1,2010-03-08T05:00:00Z,28.4460,-96.3961,0.0,7.2,116.0,8.4,'11111222,11111222,11111222' 
TCOON,ioos:station:TCOON:057:1,2010-03-08T06:00:00Z,28.4460,-96.3961,0.0,6.8,116.0,7.5,'11111222,11111222,11111222' 
TCOON,ioos:station:TCOON:057:1,2010-03-08T07:00:00Z,28.4460,-96.3961,0.0,5.5,113.0,6.3,'11111222,11111222,11111222' 
TCOON,ioos:station:TCOON:057:1,2010-03-08T09:00:00Z,28.4460,-96.3961,0.0,6.4,108.0,7.3,'11111222,11111222,11111222' 
TCOON,ioos:station:TCOON:057:1,2010-03-08T10:00:00Z,28.4460,-96.3961,0.0,6.8,116.0,7.8,'11111222,11111222,11111222' 
TCOON,ioos:station:TCOON:057:1,2010-03-08T11:00:00Z,28.4460,-96.3961,0.0,6.4,111.0,7.4,'11111222,11111222,11111222' 
TCOON,ioos:station:TCOON:057:1,2010-03-08T12:00:00Z,28.4460,-96.3961,0.0,6.4,110.0,7.6,'11111222,11111222,11111222' 
TCOON,ioos:station:TCOON:057:1,2010-03-08T13:00:00Z,28.4460,-96.3961,0.0,6.6,108.0,7.3,'11111222,11111222,11111222' 
TCOON,ioos:station:TCOON:057:1,2010-03-08T14:00:00Z,28.4460,-96.3961,0.0,8.2,110.0,9.3,'11111222,11111222,11111222' 
TCOON,ioos:station:TCOON:057:1,2010-03-08T15:00:00Z,28.4460,-96.3961,0.0,5.5,96.0,6.3,'11111222,11111222,11111222' 
TCOON,ioos:station:TCOON:057:1,2010-03-08T16:00:00Z,28.4460,-96.3961,0.0,9.3,122.0,10.2,'11111222,11111222,11111222' 
TCOON,ioos:station:TCOON:057:1,2010-03-08T17:00:00Z,28.4460,-96.3961,0.0,8.9,124.0,10.1,'11111222,11111222,11111222' 
TCOON,ioos:station:TCOON:057:1,2010-03-08T18:00:00Z,28.4460,-96.3961,0.0,9.8,128.0,11.7,'11111222,11111222,11111222' 
TCOON,ioos:station:TCOON:057:1,2010-03-08T19:00:00Z,28.4460,-96.3961,0.0,8.9,120.0,9.7,'11111222,11111222,11111222' 
TCOON,ioos:station:TCOON:057:1,2010-03-08T20:00:00Z,28.4460,-96.3961,0.0,8.7,127.0,9.7,'11111222,11111222,11111222' 
TCOON,ioos:station:TCOON:057:1,2010-03-08T21:00:00Z,28.4460,-96.3961,0.0,12.7,142.0,15.2,'11111222,11111222,11111222' 
TCOON,ioos:station:TCOON:057:1,2010-03-08T22:00:00Z,28.4460,-96.3961,0.0,12.5,143.0,14.8,'11111222,11111222,11111222' 
TCOON,ioos:station:TCOON:057:1,2010-03-08T23:00:00Z,28.4460,-96.3961,0.0,11.5,146.0,13.5,'11111222,11111222,11111222' 
TCOON,ioos:station:TCOON:057:1,2010-03-09T00:00:00Z,28.4460,-96.3961,0.0,7.8,149.0,8.8,'11111222,11111222,11111222' 
TCOON,ioos:station:TCOON:057:1,2010-03-09T02:00:00Z,28.4460,-96.3961,0.0,4.7,128.0,5.3,'11111222,11111222,11111222' 
TCOON,ioos:station:TCOON:057:1,2010-03-09T03:00:00Z,28.4460,-96.3961,0.0,3.6,123.0,4.1,'11111222,11111222,11111222' 
TCOON,ioos:station:TCOON:057:1,2010-03-09T04:00:00Z,28.4460,-96.3961,0.0,3.1,139.0,3.3,'11111222,11111222,11111222' 
TCOON,ioos:station:TCOON:057:1,2010-03-09T05:00:00Z,28.4460,-96.3961,0.0,2.2,47.0,2.3,'11111222,11111222,11111222' 
TCOON,ioos:station:TCOON:057:1,2010-03-09T06:00:00Z,28.4460,-96.3961,0.0,2.9,86.0,3.1,'11111222,11111222,11111222' 
TCOON,ioos:station:TCOON:057:1,2010-03-09T07:00:00Z,28.4460,-96.3961,0.0,4.1,138.0,4.4,'11111222,11111222,11111222' 
TCOON,ioos:station:TCOON:057:1,2010-03-09T09:00:00Z,28.4460,-96.3961,0.0,0.0,105.0,99.0,'11111222,11111222,11144222' 
TCOON,ioos:station:TCOON:057:1,2010-03-09T11:00:00Z,28.4460,-96.3961,0.0,5.9,148.0,6.5,'11111222,11111222,11111222' 
TCOON,ioos:station:TCOON:057:1,2010-03-09T12:00:00Z,28.4460,-96.3961,0.0,6.4,140.0,7.1,'11111222,11111222,11111222' 
TCOON,ioos:station:TCOON:057:1,2010-03-09T13:00:00Z,28.4460,-96.3961,0.0,3.6,147.0,4.3,'11111222,11111222,11111222' 
TCOON,ioos:station:TCOON:057:1,2010-03-09T14:00:00Z,28.4460,-96.3961,0.0,2.2,141.0,2.6,'11111222,11111222,11111222' 
TCOON,ioos:station:TCOON:057:1,2010-03-09T17:00:00Z,28.4460,-96.3961,0.0,3.2,201.0,3.9,'11111222,11111222,11111222' 
TCOON,ioos:station:TCOON:057:1,2010-03-09T18:00:00Z,28.4460,-96.3961,0.0,2.9,216.0,3.4,'11111222,11111222,11111222' 
TCOON,ioos:station:TCOON:057:1,2010-03-09T19:00:00Z,28.4460,-96.3961,0.0,5.1,226.0,5.9,'11111222,11111222,11111222' 
TCOON,ioos:station:TCOON:057:1,2010-03-09T20:00:00Z,28.4460,-96.3961,0.0,4.2,224.0,5.1,'11111222,11111222,11111222' 
TCOON,ioos:station:TCOON:057:1,2010-03-09T21:00:00Z,28.4460,-96.3961,0.0,4.5,177.0,5.5,'11111222,11111222,11111222' 
TCOON,ioos:station:TCOON:057:1,2010-03-09T22:00:00Z,28.4460,-96.3961,0.0,4.3,147.0,4.7,'11111222,11111222,11111222' 
TCOON,ioos:station:TCOON:057:1,2010-03-09T23:00:00Z,28.4460,-96.3961,0.0,4.5,144.0,4.8,'11111222,11111222,11111222' 
TCOON,ioos:station:TCOON:057:1,2010-03-10T00:00:00Z,28.4460,-96.3961,0.0,3.8,145.0,4.4,'11111222,11111222,11111222' 
TCOON,ioos:station:TCOON:057:1,2010-03-10T01:00:00Z,28.4460,-96.3961,0.0,4.5,154.0,5.1,'11111222,11111222,11111222' 
TCOON,ioos:station:TCOON:057:1,2010-03-10T02:00:00Z,28.4460,-96.3961,0.0,5.2,159.0,5.8,'11111222,11111222,11111222' 
TCOON,ioos:station:TCOON:057:1,2010-03-10T03:00:00Z,28.4460,-96.3961,0.0,4.9,153.0,5.4,'11111222,11111222,11111222' 
TCOON,ioos:station:TCOON:057:1,2010-03-10T04:00:00Z,28.4460,-96.3961,0.0,4.8,161.0,5.5,'11111222,11111222,11111222' 
TCOON,ioos:station:TCOON:057:1,2010-03-10T05:00:00Z,28.4460,-96.3961,0.0,4.2,163.0,5.2,'11111222,11111222,11111222' 
TCOON,ioos:station:TCOON:057:1,2010-03-10T06:00:00Z,28.4460,-96.3961,0.0,4.9,167.0,5.7,'11111222,11111222,11111222' 
TCOON,ioos:station:TCOON:057:1,2010-03-10T07:00:00Z,28.4460,-96.3961,0.0,4.0,166.0,4.4,'11111222,11111222,11111222' 
TCOON,ioos:station:TCOON:057:1,2010-03-10T08:00:00Z,28.4460,-96.3961,0.0,4.2,181.0,5.2,'11111222,11111222,11111222' 
TCOON,ioos:station:TCOON:057:1,2010-03-10T09:00:00Z,28.4460,-96.3961,0.0,4.4,181.0,5.2,'11111222,11111222,11111222' 
TCOON,ioos:station:TCOON:057:1,2010-03-10T10:00:00Z,28.4460,-96.3961,0.0,5.5,198.0,6.4,'11111222,11111222,11111222' 
TCOON,ioos:station:TCOON:057:1,2010-03-10T11:00:00Z,28.4460,-96.3961,0.0,3.8,204.0,5.0,'11111222,11111222,11111222' 
TCOON,ioos:station:TCOON:057:1,2010-03-10T12:00:00Z,28.4460,-96.3961,0.0,1.6,132.0,2.0,'11111222,11111222,11111222' 
TCOON,ioos:station:TCOON:057:1,2010-03-10T13:00:00Z,28.4460,-96.3961,0.0,2.5,108.0,3.0,'11111222,11111222,11111222' 
TCOON,ioos:station:TCOON:057:1,2010-03-10T14:00:00Z,28.4460,-96.3961,0.0,2.5,99.0,2.8,'11111222,11111222,11111222' 
TCOON,ioos:station:TCOON:057:1,2010-03-10T15:00:00Z,28.4460,-96.3961,0.0,3.5,118.0,3.9,'11111222,11111222,11111222' 